| time (UTC) | temp F | wind direction | speed knots | gust knots | rain 1hr in | rain 24hr in | rain mn in | humidity % | barometer mb |
| 20260510211507 | 43 | 72 | 0.0 | 2.6 | 0.00 | 0.00 | 0.00 | 68 | 1015.6 |
| 20260510211007 | 43 | 72 | 0.9 | 2.6 | 0.00 | 0.00 | 0.00 | 68 | 1015.6 |
| 20260510210507 | 43 | 72 | 0.9 | 2.6 | 0.00 | 0.00 | 0.00 | 68 | 1015.6 |
| 20260510210007 | 43 | 72 | 1.7 | 2.6 | 0.00 | 0.00 | 0.00 | 67 | 1015.7 |
| 20260510205507 | 43 | 72 | 1.7 | 3.5 | 0.00 | 0.00 | 0.00 | 67 | 1015.7 |
| 20260510204507 | 44 | 72 | 2.6 | 3.5 | 0.00 | 0.00 | 0.00 | 67 | 1015.8 |
| 20260510204007 | 44 | 71 | 2.6 | 4.3 | 0.00 | 0.00 | 0.00 | 67 | 1015.9 |
| 20260510203507 | 44 | 72 | 2.6 | 4.3 | 0.00 | 0.00 | 0.00 | 66 | 1015.9 |
| 20260510203007 | 44 | 72 | 2.6 | 4.3 | 0.00 | 0.00 | 0.00 | 66 | 1015.9 |
| 20260510202507 | 44 | 72 | 3.5 | 4.3 | 0.00 | 0.00 | 0.00 | 66 | 1016.0 |
| 20260510201507 | 44 | 74 | 4.3 | 7.0 | 0.00 | 0.00 | 0.00 | 66 | 1015.9 |
| 20260510201007 | 44 | 77 | 4.3 | 7.0 | 0.00 | 0.00 | 0.00 | 66 | 1016.0 |
| 20260510200507 | 45 | 82 | 4.3 | 7.0 | 0.00 | 0.00 | 0.00 | 66 | 1016.0 |
| 20260510200008 | 45 | 80 | 4.3 | 7.8 | 0.00 | 0.00 | 0.00 | 66 | 1016.0 |
| 20260510195507 | 45 | 78 | 4.3 | 7.8 | 0.00 | 0.00 | 0.00 | 65 | 1016.1 |
| 20260510195007 | 45 | 80 | 4.3 | 7.8 | 0.00 | 0.00 | 0.00 | 65 | 1016.2 |
| 20260510194507 | 45 | 79 | 4.3 | 8.7 | 0.00 | 0.00 | 0.00 | 65 | 1016.2 |
| 20260510193006 | 46 | 72 | 6.1 | 9.6 | 0.00 | 0.00 | 0.00 | 63 | 1016.4 |
| 20260510192007 | 47 | 71 | 6.1 | 12.2 | 0.00 | 0.00 | 0.00 | 62 | 1016.3 |
| 20260510191007 | 47 | 68 | 6.1 | 10.4 | 0.00 | 0.00 | 0.00 | 62 | 1016.3 |
| 20260510190507 | 47 | 75 | 7.0 | 10.4 | 0.00 | 0.00 | 0.00 | 62 | 1016.4 |
| 20260510190007 | 47 | 74 | 7.8 | 10.4 | 0.00 | 0.00 | 0.00 | 63 | 1016.5 |
| 20260510185507 | 48 | 69 | 7.8 | 13.0 | 0.00 | 0.00 | 0.00 | 62 | 1016.5 |
| 20260510185007 | 48 | 68 | 7.8 | 13.0 | 0.00 | 0.00 | 0.00 | 61 | 1016.6 |
| 20260510184006 | 48 | 60 | 7.8 | 12.2 | 0.00 | 0.00 | 0.00 | 62 | 1016.6 |
| 20260510183507 | 48 | 70 | 7.8 | 11.3 | 0.00 | 0.00 | 0.00 | 62 | 1016.7 |
| 20260510183007 | 48 | 67 | 8.7 | 11.3 | 0.00 | 0.00 | 0.00 | 62 | 1016.6 |
| 20260510182507 | 49 | 58 | 8.7 | 11.3 | 0.00 | 0.00 | 0.00 | 62 | 1016.6 |
| 20260510182006 | 49 | 63 | 7.8 | 13.0 | 0.00 | 0.00 | 0.00 | 61 | 1016.6 |
| 20260510181007 | 49 | 69 | 7.0 | 10.4 | 0.00 | 0.00 | 0.00 | 61 | 1016.6 |
| 20260510180507 | 49 | 66 | 7.8 | 10.4 | 0.00 | 0.00 | 0.00 | 61 | 1016.6 |
| 20260510180007 | 49 | 63 | 8.7 | 13.0 | 0.00 | 0.00 | 0.00 | 61 | 1016.5 |
| 20260510175507 | 49 | 63 | 8.7 | 13.9 | 0.00 | 0.00 | 0.00 | 60 | 1016.5 |
| 20260510175006 | 50 | 61 | 8.7 | 13.9 | 0.00 | 0.00 | 0.00 | 60 | 1016.5 |
| 20260510173507 | 50 | 67 | 8.7 | 14.8 | 0.00 | 0.00 | 0.00 | 61 | 1016.6 |
| 20260510173006 | 50 | 61 | 8.7 | 13.9 | 0.00 | 0.00 | 0.00 | 60 | 1016.8 |
| 20260510172507 | 50 | 66 | 8.7 | 13.9 | 0.00 | 0.00 | 0.00 | 60 | 1016.7 |
| 20260510171507 | 50 | 68 | 10.4 | 14.8 | 0.00 | 0.00 | 0.00 | 60 | 1016.8 |
| 20260510170507 | 51 | 67 | 7.8 | 17.4 | 0.00 | 0.00 | 0.00 | 59 | 1016.8 |
| 20260510170007 | 51 | 64 | 8.7 | 13.0 | 0.00 | 0.00 | 0.00 | 60 | 1016.9 |
| 20260510165507 | 51 | 58 | 8.7 | 14.8 | 0.00 | 0.00 | 0.00 | 60 | 1016.9 |
| 20260510164507 | 52 | 56 | 8.7 | 13.9 | 0.00 | 0.00 | 0.00 | 58 | 1017.0 |
| 20260510164006 | 51 | 53 | 9.6 | 13.9 | 0.00 | 0.00 | 0.00 | 58 | 1017.1 |
| 20260510163007 | 51 | 71 | 10.4 | 13.9 | 0.00 | 0.00 | 0.00 | 59 | 1017.3 |
| 20260510162506 | 51 | 68 | 10.4 | 15.6 | 0.00 | 0.00 | 0.00 | 59 | 1017.2 |
| 20260510162007 | 51 | 63 | 10.4 | 15.6 | 0.00 | 0.00 | 0.00 | 58 | 1017.5 |
| 20260510161506 | 51 | 65 | 10.4 | 17.4 | 0.00 | 0.00 | 0.00 | 58 | 1017.4 |
| 20260510161006 | 52 | 61 | 9.6 | 17.4 | 0.00 | 0.00 | 0.00 | 58 | 1017.5 |
| 20260510160507 | 51 | 58 | 9.6 | 14.8 | 0.00 | 0.00 | 0.00 | 59 | 1017.4 |
| 20260510160006 | 51 | 66 | 9.6 | 14.8 | 0.00 | 0.00 | 0.00 | 58 | 1017.6 |
| 20260510155507 | 52 | 66 | 8.7 | 14.8 | 0.00 | 0.00 | 0.00 | 60 | 1017.6 |
| 20260510155007 | 53 | 64 | 8.7 | 14.8 | 0.00 | 0.00 | 0.00 | 57 | 1017.6 |
| 20260510154506 | 53 | 59 | 8.7 | 14.8 | 0.00 | 0.00 | 0.00 | 59 | 1017.8 |
| 20260510154007 | 53 | 55 | 9.6 | 13.0 | 0.00 | 0.00 | 0.00 | 56 | 1017.8 |
| 20260510153506 | 53 | 52 | 11.3 | 18.2 | 0.00 | 0.00 | 0.00 | 57 | 1017.7 |
| 20260510153006 | 53 | 49 | 11.3 | 18.2 | 0.00 | 0.00 | 0.00 | 57 | 1017.8 |
| 20260510152507 | 53 | 52 | 10.4 | 16.5 | 0.00 | 0.00 | 0.00 | 55 | 1017.7 |
| 20260510152006 | 53 | 57 | 9.6 | 15.6 | 0.00 | 0.00 | 0.00 | 55 | 1017.8 |
| 20260510151507 | 53 | 62 | 8.7 | 14.8 | 0.00 | 0.00 | 0.00 | 57 | 1018.0 |
| 20260510151007 | 54 | 58 | 9.6 | 14.8 | 0.00 | 0.00 | 0.00 | 55 | 1018.0 |
| 20260510150506 | 54 | 52 | 10.4 | 13.9 | 0.00 | 0.00 | 0.00 | 55 | 1018.1 |
| 20260510150007 | 53 | 61 | 9.6 | 17.4 | 0.00 | 0.00 | 0.00 | 55 | 1018.1 |
| 20260510144506 | 53 | 54 | 9.6 | 13.9 | 0.00 | 0.00 | 0.00 | 57 | 1018.2 |
| 20260510144006 | 52 | 61 | 10.4 | 16.5 | 0.00 | 0.00 | 0.00 | 56 | 1018.3 |
| 20260510143506 | 53 | 60 | 10.4 | 20.0 | 0.00 | 0.00 | 0.00 | 57 | 1018.3 |
| 20260510143007 | 54 | 64 | 10.4 | 20.0 | 0.00 | 0.00 | 0.00 | 56 | 1018.3 |
| 20260510142506 | 53 | 63 | 10.4 | 17.4 | 0.00 | 0.00 | 0.00 | 55 | 1018.3 |
| 20260510142006 | 53 | 59 | 10.4 | 17.4 | 0.00 | 0.00 | 0.00 | 57 | 1018.5 |
| 20260510141506 | 53 | 56 | 10.4 | 17.4 | 0.00 | 0.00 | 0.00 | 57 | 1018.4 |
| 20260510141006 | 54 | 50 | 10.4 | 15.6 | 0.00 | 0.00 | 0.00 | 56 | 1018.5 |
| 20260510140506 | 53 | 49 | 10.4 | 14.8 | 0.00 | 0.00 | 0.00 | 55 | 1018.3 |
| 20260510140007 | 54 | 57 | 10.4 | 18.2 | 0.00 | 0.00 | 0.00 | 56 | 1018.5 |
| 20260510135506 | 53 | 66 | 10.4 | 18.2 | 0.00 | 0.00 | 0.00 | 57 | 1018.5 |
| 20260510135006 | 53 | 65 | 10.4 | 16.5 | 0.00 | 0.00 | 0.00 | 55 | 1018.5 |
| 20260510134506 | 53 | 62 | 11.3 | 18.2 | 0.00 | 0.00 | 0.00 | 57 | 1018.5 |
| 20260510133506 | 53 | 60 | 12.2 | 19.1 | 0.00 | 0.00 | 0.00 | 58 | 1018.5 |
| 20260510133006 | 53 | 56 | 11.3 | 19.1 | 0.00 | 0.00 | 0.00 | 56 | 1018.7 |
| 20260510132506 | 53 | 54 | 10.4 | 18.2 | 0.00 | 0.00 | 0.00 | 58 | 1018.8 |
| 20260510132006 | 53 | 55 | 10.4 | 17.4 | 0.00 | 0.00 | 0.00 | 57 | 1018.8 |
| 20260510131506 | 53 | 57 | 11.3 | 17.4 | 0.00 | 0.00 | 0.00 | 59 | 1018.8 |
| 20260510131006 | 53 | 59 | 11.3 | 16.5 | 0.00 | 0.00 | 0.00 | 59 | 1019.0 |
| 20260510130506 | 53 | 52 | 10.4 | 16.5 | 0.00 | 0.00 | 0.00 | 59 | 1019.0 |
| 20260510130007 | 53 | 43 | 11.3 | 16.5 | 0.00 | 0.00 | 0.00 | 57 | 1019.1 |
| 20260510125506 | 53 | 53 | 11.3 | 18.2 | 0.00 | 0.00 | 0.00 | 60 | 1019.0 |
| 20260510125006 | 53 | 60 | 11.3 | 18.2 | 0.00 | 0.00 | 0.00 | 60 | 1019.1 |
| 20260510124006 | 53 | 51 | 11.3 | 20.9 | 0.00 | 0.00 | 0.00 | 60 | 1019.2 |
| 20260510123506 | 53 | 57 | 11.3 | 18.2 | 0.00 | 0.00 | 0.00 | 63 | 1019.2 |
| 20260510122506 | 52 | 54 | 12.2 | 22.6 | 0.00 | 0.00 | 0.00 | 62 | 1019.3 |
| 20260510122006 | 52 | 47 | 12.2 | 22.6 | 0.00 | 0.00 | 0.00 | 61 | 1019.5 |
| 20260510121506 | 53 | 49 | 11.3 | 20.0 | 0.00 | 0.00 | 0.00 | 62 | 1019.3 |
| 20260510121006 | 52 | 52 | 10.4 | 20.0 | 0.00 | 0.00 | 0.00 | 62 | 1019.5 |
| 20260510120505 | 52 | 50 | 10.4 | 20.0 | 0.00 | 0.00 | 0.00 | 60 | 1019.6 |
| 20260510115505 | 52 | 60 | 12.2 | 18.2 | 0.00 | 0.00 | 0.00 | 63 | 1019.6 |
| 20260510114006 | 52 | 60 | 12.2 | 19.1 | 0.00 | 0.00 | 0.00 | 62 | 1019.8 |
| 20260510113506 | 52 | 66 | 11.3 | 19.1 | 0.00 | 0.00 | 0.00 | 63 | 1019.8 |
| 20260510113006 | 52 | 62 | 10.4 | 17.4 | 0.00 | 0.00 | 0.00 | 63 | 1019.8 |
| 20260510112506 | 52 | 54 | 10.4 | 15.6 | 0.00 | 0.00 | 0.00 | 63 | 1019.9 |
| 20260510111505 | 51 | 57 | 11.3 | 16.5 | 0.00 | 0.00 | 0.00 | 63 | 1019.9 |
| 20260510111005 | 51 | 47 | 10.4 | 17.4 | 0.00 | 0.00 | 0.00 | 65 | 1020.0 |
| 20260510110506 | 51 | 45 | 10.4 | 17.4 | 0.00 | 0.00 | 0.00 | 63 | 1020.2 |
| 20260510110006 | 51 | 53 | 10.4 | 17.4 | 0.00 | 0.00 | 0.00 | 64 | 1020.2 |
| 20260510105506 | 51 | 60 | 10.4 | 16.5 | 0.00 | 0.00 | 0.00 | 66 | 1020.2 |
| 20260510105006 | 50 | 58 | 11.3 | 16.5 | 0.00 | 0.00 | 0.00 | 67 | 1020.4 |
| 20260510104506 | 49 | 54 | 11.3 | 16.5 | 0.00 | 0.00 | 0.00 | 68 | 1020.3 |
| 20260510104006 | 49 | 50 | 11.3 | 16.5 | 0.00 | 0.00 | 0.00 | 68 | 1020.3 |
| 20260510103506 | 49 | 56 | 11.3 | 16.5 | 0.00 | 0.00 | 0.00 | 67 | 1020.4 |
| 20260510103006 | 49 | 57 | 11.3 | 15.6 | 0.00 | 0.00 | 0.00 | 68 | 1020.3 |
| 20260510102506 | 49 | 52 | 11.3 | 17.4 | 0.00 | 0.00 | 0.00 | 67 | 1020.3 |
| 20260510102006 | 49 | 55 | 12.2 | 17.4 | 0.00 | 0.00 | 0.00 | 68 | 1020.5 |
| 20260510101506 | 49 | 51 | 12.2 | 17.4 | 0.00 | 0.00 | 0.00 | 69 | 1020.3 |
| 20260510101005 | 49 | 48 | 11.3 | 18.2 | 0.00 | 0.00 | 0.00 | 69 | 1020.5 |
| 20260510100506 | 49 | 48 | 10.4 | 18.2 | 0.00 | 0.00 | 0.00 | 69 | 1020.5 |
| 20260510100006 | 49 | 46 | 9.6 | 17.4 | 0.00 | 0.00 | 0.00 | 69 | 1020.5 |
| 20260510095505 | 49 | 51 | 9.6 | 17.4 | 0.00 | 0.00 | 0.00 | 70 | 1020.4 |
| 20260510095006 | 49 | 54 | 8.7 | 16.5 | 0.00 | 0.00 | 0.00 | 72 | 1020.6 |
| 20260510094506 | 49 | 48 | 9.6 | 16.5 | 0.00 | 0.00 | 0.00 | 72 | 1020.6 |
| 20260510094006 | 48 | 43 | 9.6 | 15.6 | 0.00 | 0.00 | 0.00 | 72 | 1020.7 |
| 20260510093506 | 48 | 49 | 10.4 | 15.6 | 0.00 | 0.00 | 0.00 | 73 | 1020.7 |
| 20260510093005 | 48 | 52 | 10.4 | 17.4 | 0.00 | 0.00 | 0.00 | 74 | 1020.6 |
| 20260510092505 | 48 | 46 | 10.4 | 17.4 | 0.00 | 0.00 | 0.00 | 74 | 1020.8 |
| 20260510092005 | 48 | 45 | 9.6 | 16.5 | 0.00 | 0.00 | 0.00 | 74 | 1020.7 |
| 20260510091505 | 48 | 49 | 9.6 | 16.5 | 0.00 | 0.00 | 0.00 | 74 | 1020.8 |
| 20260510091005 | 48 | 56 | 10.4 | 16.5 | 0.00 | 0.00 | 0.00 | 74 | 1020.8 |
| 20260510090505 | 48 | 58 | 9.6 | 16.5 | 0.00 | 0.00 | 0.00 | 74 | 1020.7 |
| 20260510085006 | 48 | 45 | 10.4 | 13.9 | 0.00 | 0.00 | 0.00 | 75 | 1020.8 |
| 20260510084506 | 48 | 48 | 10.4 | 14.8 | 0.00 | 0.00 | 0.00 | 74 | 1020.9 |
| 20260510084006 | 48 | 47 | 10.4 | 16.5 | 0.00 | 0.00 | 0.00 | 74 | 1020.8 |
| 20260510083505 | 48 | 44 | 8.7 | 16.5 | 0.00 | 0.00 | 0.00 | 74 | 1020.9 |
| 20260510083006 | 48 | 43 | 8.7 | 15.6 | 0.00 | 0.00 | 0.00 | 75 | 1020.9 |
| 20260510082505 | 48 | 46 | 11.3 | 14.8 | 0.00 | 0.00 | 0.00 | 76 | 1020.9 |
| 20260510082005 | 48 | 47 | 11.3 | 18.2 | 0.00 | 0.00 | 0.00 | 76 | 1020.9 |
| 20260510081505 | 47 | 43 | 10.4 | 18.2 | 0.00 | 0.00 | 0.00 | 75 | 1020.9 |
| 20260510081005 | 47 | 41 | 10.4 | 17.4 | 0.00 | 0.00 | 0.00 | 76 | 1020.8 |
| 20260510080505 | 47 | 43 | 10.4 | 18.2 | 0.00 | 0.00 | 0.00 | 76 | 1020.8 |
| 20260510080006 | 47 | 42 | 11.3 | 18.2 | 0.00 | 0.00 | 0.00 | 75 | 1020.7 |
| 20260510075505 | 47 | 40 | 11.3 | 16.5 | 0.00 | 0.00 | 0.00 | 76 | 1020.7 |
| 20260510075005 | 47 | 44 | 10.4 | 18.2 | 0.00 | 0.00 | 0.00 | 76 | 1020.7 |
| 20260510074505 | 47 | 46 | 10.4 | 18.2 | 0.00 | 0.00 | 0.00 | 75 | 1020.7 |
| 20260510074005 | 47 | 46 | 11.3 | 15.6 | 0.00 | 0.00 | 0.00 | 76 | 1020.7 |
| 20260510073505 | 47 | 49 | 11.3 | 17.4 | 0.00 | 0.00 | 0.00 | 76 | 1020.6 |
| 20260510073006 | 47 | 48 | 11.3 | 20.0 | 0.00 | 0.00 | 0.00 | 76 | 1020.7 |
| 20260510072506 | 47 | 44 | 11.3 | 20.0 | 0.00 | 0.00 | 0.00 | 76 | 1020.6 |
| 20260510072005 | 47 | 47 | 11.3 | 18.2 | 0.00 | 0.00 | 0.00 | 76 | 1020.7 |
| 20260510071505 | 47 | 43 | 11.3 | 16.5 | 0.00 | 0.00 | 0.00 | 76 | 1020.7 |
| 20260510070505 | 46 | 41 | 9.6 | 18.2 | 0.00 | 0.00 | 0.00 | 77 | 1020.7 |
| 20260510070005 | 47 | 33 | 9.6 | 18.2 | 0.00 | 0.00 | 0.00 | 77 | 1020.7 |
| 20260510065505 | 47 | 42 | 10.4 | 17.4 | 0.00 | 0.00 | 0.00 | 79 | 1020.5 |
| 20260510065005 | 46 | 42 | 10.4 | 17.4 | 0.00 | 0.00 | 0.00 | 79 | 1020.5 |
| 20260510064505 | 46 | 36 | 10.4 | 16.5 | 0.00 | 0.00 | 0.00 | 79 | 1020.6 |
| 20260510064005 | 46 | 39 | 10.4 | 16.5 | 0.00 | 0.00 | 0.00 | 80 | 1020.4 |
| 20260510063505 | 46 | 40 | 11.3 | 18.2 | 0.00 | 0.00 | 0.00 | 80 | 1020.5 |
| 20260510062505 | 46 | 42 | 10.4 | 19.1 | 0.00 | 0.00 | 0.00 | 80 | 1020.4 |
| 20260510062006 | 46 | 42 | 9.6 | 19.1 | 0.00 | 0.00 | 0.00 | 80 | 1020.4 |
| 20260510061505 | 46 | 43 | 10.4 | 15.6 | 0.00 | 0.00 | 0.00 | 81 | 1020.3 |
| 20260510061005 | 46 | 48 | 10.4 | 16.5 | 0.00 | 0.00 | 0.00 | 81 | 1020.4 |
| 20260510060505 | 46 | 47 | 9.6 | 16.5 | 0.00 | 0.00 | 0.00 | 81 | 1020.5 |
| 20260510060005 | 46 | 41 | 8.7 | 16.5 | 0.00 | 0.00 | 0.00 | 81 | 1020.4 |
| 20260510055505 | 46 | 38 | 9.6 | 14.8 | 0.00 | 0.00 | 0.00 | 81 | 1020.5 |
| 20260510055005 | 46 | 38 | 10.4 | 16.5 | 0.00 | 0.00 | 0.00 | 82 | 1020.5 |
| 20260510054505 | 46 | 36 | 10.4 | 17.4 | 0.00 | 0.00 | 0.00 | 82 | 1020.5 |
| 20260510054005 | 46 | 36 | 9.6 | 17.4 | 0.00 | 0.00 | 0.00 | 81 | 1020.5 |
| 20260510053505 | 46 | 38 | 10.4 | 16.5 | 0.00 | 0.00 | 0.00 | 82 | 1020.5 |
| 20260510053005 | 47 | 34 | 10.4 | 16.5 | 0.00 | 0.00 | 0.00 | 82 | 1020.5 |
| 20260510052505 | 47 | 37 | 9.6 | 16.5 | 0.00 | 0.00 | 0.00 | 82 | 1020.6 |
| 20260510052005 | 47 | 41 | 9.6 | 16.5 | 0.00 | 0.00 | 0.00 | 82 | 1020.6 |
| 20260510051005 | 47 | 37 | 8.7 | 14.8 | 0.00 | 0.00 | 0.00 | 82 | 1020.7 |
| 20260510050504 | 47 | 37 | 7.8 | 13.9 | 0.00 | 0.00 | 0.00 | 82 | 1020.7 |
| 20260510045505 | 47 | 47 | 8.7 | 13.9 | 0.00 | 0.00 | 0.00 | 82 | 1020.5 |
| 20260510045005 | 47 | 44 | 8.7 | 13.9 | 0.00 | 0.00 | 0.00 | 82 | 1020.5 |
| 20260510044505 | 47 | 44 | 8.7 | 13.9 | 0.00 | 0.00 | 0.00 | 82 | 1020.6 |
| 20260510044004 | 47 | 44 | 9.6 | 14.8 | 0.00 | 0.00 | 0.00 | 82 | 1020.5 |
| 20260510043505 | 47 | 47 | 10.4 | 17.4 | 0.00 | 0.00 | 0.00 | 81 | 1020.3 |
| 20260510043005 | 47 | 50 | 9.6 | 17.4 | 0.00 | 0.00 | 0.00 | 81 | 1020.4 |
| 20260510042505 | 47 | 49 | 8.7 | 14.8 | 0.00 | 0.00 | 0.00 | 82 | 1020.4 |
| 20260510041505 | 47 | 45 | 9.6 | 14.8 | 0.00 | 0.00 | 0.00 | 82 | 1020.4 |
| 20260510041005 | 47 | 45 | 9.6 | 18.2 | 0.00 | 0.00 | 0.00 | 82 | 1020.5 |
| 20260510040005 | 47 | 41 | 8.7 | 16.5 | 0.00 | 0.00 | 0.00 | 82 | 1020.4 |
| 20260510035505 | 47 | 42 | 7.8 | 16.5 | 0.00 | 0.00 | 0.00 | 82 | 1020.5 |
| 20260510035005 | 47 | 39 | 7.8 | 13.0 | 0.00 | 0.00 | 0.00 | 83 | 1020.5 |
| 20260510034505 | 47 | 35 | 8.7 | 13.9 | 0.00 | 0.00 | 0.00 | 83 | 1020.6 |
| 20260510034004 | 47 | 39 | 8.7 | 13.9 | 0.00 | 0.00 | 0.00 | 83 | 1020.5 |
| 20260510033004 | 47 | 44 | 7.8 | 13.0 | 0.00 | 0.00 | 0.00 | 82 | 1020.6 |
| 20260510032505 | 47 | 45 | 8.7 | 13.0 | 0.00 | 0.00 | 0.00 | 82 | 1020.7 |
| 20260510032004 | 48 | 47 | 9.6 | 13.9 | 0.00 | 0.00 | 0.00 | 82 | 1020.7 |
| 20260510030504 | 48 | 35 | 8.7 | 16.5 | 0.00 | 0.00 | 0.00 | 82 | 1020.9 |
| 20260510025505 | 48 | 34 | 7.8 | 13.0 | 0.00 | 0.00 | 0.00 | 82 | 1020.9 |
| 20260510025004 | 48 | 37 | 7.8 | 12.2 | 0.00 | 0.00 | 0.00 | 83 | 1020.9 |
| 20260510024505 | 48 | 36 | 7.8 | 12.2 | 0.00 | 0.00 | 0.00 | 83 | 1021.0 |
| 20260510023505 | 48 | 40 | 7.8 | 13.9 | 0.00 | 0.00 | 0.00 | 83 | 1020.9 |
| 20260510023004 | 48 | 45 | 7.8 | 13.9 | 0.00 | 0.00 | 0.00 | 83 | 1021.0 |
| 20260510022504 | 48 | 46 | 7.8 | 13.9 | 0.00 | 0.00 | 0.00 | 83 | 1020.9 |
| 20260510022004 | 48 | 41 | 7.8 | 12.2 | 0.00 | 0.00 | 0.00 | 83 | 1021.0 |
| 20260510021504 | 48 | 44 | 8.7 | 13.9 | 0.00 | 0.00 | 0.00 | 83 | 1021.0 |
| 20260510021005 | 48 | 44 | 8.7 | 13.9 | 0.00 | 0.00 | 0.00 | 83 | 1021.0 |
| 20260510020005 | 48 | 43 | 8.7 | 13.9 | 0.00 | 0.00 | 0.00 | 82 | 1021.2 |
| 20260510015504 | 48 | 45 | 7.8 | 14.8 | 0.00 | 0.00 | 0.00 | 83 | 1021.2 |
| 20260510015005 | 48 | 45 | 8.7 | 14.8 | 0.00 | 0.00 | 0.00 | 83 | 1021.2 |
| 20260510014506 | 48 | 42 | 8.7 | 13.9 | 0.00 | 0.00 | 0.00 | 82 | 1021.2 |
| 20260510014005 | 48 | 47 | 9.6 | 13.9 | 0.00 | 0.00 | 0.00 | 82 | 1021.2 |
| 20260510013504 | 48 | 50 | 9.6 | 14.8 | 0.00 | 0.00 | 0.00 | 83 | 1021.1 |
| 20260510012504 | 48 | 46 | 7.8 | 16.5 | 0.00 | 0.00 | 0.00 | 82 | 1021.1 |
| 20260510012005 | 48 | 42 | 7.8 | 13.9 | 0.00 | 0.00 | 0.00 | 83 | 1021.0 |
| 20260510011505 | 48 | 38 | 7.8 | 14.8 | 0.00 | 0.00 | 0.00 | 83 | 1021.1 |
| 20260510011005 | 48 | 41 | 7.0 | 14.8 | 0.00 | 0.00 | 0.00 | 83 | 1021.2 |
| 20260510010504 | 48 | 46 | 7.0 | 12.2 | 0.00 | 0.00 | 0.00 | 84 | 1021.2 |
| 20260510010005 | 48 | 48 | 7.8 | 12.2 | 0.00 | 0.00 | 0.00 | 84 | 1021.1 |
| 20260510005504 | 48 | 46 | 7.8 | 14.8 | 0.00 | 0.00 | 0.00 | 84 | 1020.8 |
| 20260510004504 | 48 | 43 | 7.8 | 12.2 | 0.00 | 0.00 | 0.00 | 84 | 1020.8 |
| 20260510004005 | 48 | 51 | 8.7 | 12.2 | 0.00 | 0.00 | 0.00 | 84 | 1020.8 |
| 20260510003505 | 48 | 46 | 9.6 | 15.6 | 0.00 | 0.00 | 0.00 | 84 | 1020.7 |
| 20260510003005 | 48 | 41 | 9.6 | 17.4 | 0.00 | 0.00 | 0.00 | 83 | 1020.8 |
| 20260510002504 | 48 | 41 | 8.7 | 17.4 | 0.00 | 0.00 | 0.00 | 83 | 1020.8 |
| 20260510001504 | 48 | 43 | 7.8 | 12.2 | 0.00 | 0.00 | 0.00 | 83 | 1021.1 |
| 20260510001004 | 48 | 46 | 8.7 | 13.0 | 0.00 | 0.00 | 0.00 | 83 | 1021.1 |
| 20260510000505 | 48 | 45 | 9.6 | 15.6 | 0.00 | 0.00 | 0.00 | 83 | 1021.1 |
| 20260509235504 | 48 | 41 | 9.6 | 14.8 | 0.00 | 0.00 | 0.00 | 83 | 1021.0 |
| 20260509235004 | 48 | 39 | 9.6 | 14.8 | 0.00 | 0.00 | 0.00 | 83 | 1020.9 |
| 20260509234507 | 48 | 37 | 9.6 | 16.5 | 0.00 | 0.00 | 0.00 | 83 | 1021.1 |
| 20260509234007 | 48 | 38 | 9.6 | 16.5 | 0.00 | 0.00 | 0.00 | 83 | 1021.1 |
| 20260509233508 | 48 | 43 | 9.6 | 13.9 | 0.00 | 0.00 | 0.00 | 83 | 1021.0 |
| 20260509233008 | 48 | 47 | 8.7 | 15.6 | 0.00 | 0.00 | 0.00 | 83 | 1021.2 |
| 20260509232507 | 48 | 47 | 7.8 | 15.6 | 0.00 | 0.00 | 0.00 | 83 | 1021.3 |
| 20260509232008 | 48 | 46 | 8.7 | 13.9 | 0.00 | 0.00 | 0.00 | 83 | 1021.3 |
| 20260509231507 | 48 | 46 | 9.6 | 15.6 | 0.00 | 0.00 | 0.00 | 83 | 1021.2 |
| 20260509231007 | 48 | 44 | 9.6 | 15.6 | 0.00 | 0.00 | 0.00 | 82 | 1021.2 |
| 20260509230507 | 48 | 44 | 9.6 | 18.2 | 0.00 | 0.00 | 0.00 | 82 | 1021.2 |
| 20260509230008 | 48 | 41 | 8.7 | 18.2 | 0.00 | 0.00 | 0.00 | 82 | 1021.1 |
| 20260509225507 | 48 | 40 | 7.8 | 13.9 | 0.00 | 0.00 | 0.00 | 82 | 1021.1 |
| 20260509225007 | 48 | 42 | 7.8 | 13.0 | 0.00 | 0.00 | 0.00 | 82 | 1021.1 |
| 20260509224507 | 48 | 43 | 7.8 | 12.2 | 0.00 | 0.00 | 0.00 | 82 | 1021.2 |
| 20260509224007 | 48 | 44 | 8.7 | 13.9 | 0.00 | 0.00 | 0.00 | 81 | 1021.3 |
| 20260509223507 | 48 | 45 | 8.7 | 13.9 | 0.00 | 0.00 | 0.00 | 81 | 1021.2 |
| 20260509223007 | 48 | 41 | 7.8 | 13.9 | 0.00 | 0.00 | 0.00 | 80 | 1021.3 |
| 20260509222007 | 48 | 40 | 6.1 | 12.2 | 0.00 | 0.00 | 0.00 | 78 | 1021.3 |
| 20260509221507 | 49 | 38 | 6.1 | 11.3 | 0.00 | 0.00 | 0.00 | 78 | 1021.2 |
| 20260509221007 | 49 | 42 | 6.1 | 11.3 | 0.00 | 0.00 | 0.00 | 77 | 1021.2 |
| 20260509220507 | 49 | 41 | 6.1 | 11.3 | 0.00 | 0.00 | 0.00 | 76 | 1021.1 |
| 20260509220007 | 49 | 37 | 7.0 | 12.2 | 0.00 | 0.00 | 0.00 | 76 | 1021.0 |
| 20260509215007 | 50 | 44 | 7.0 | 11.3 | 0.00 | 0.00 | 0.00 | 74 | 1021.0 |
| 20260509214007 | 50 | 45 | 8.7 | 13.0 | 0.00 | 0.00 | 0.00 | 73 | 1020.8 |
| 20260509213508 | 50 | 45 | 7.8 | 13.0 | 0.00 | 0.00 | 0.00 | 72 | 1020.7 |
| 20260509213007 | 51 | 42 | 8.7 | 13.9 | 0.00 | 0.00 | 0.00 | 71 | 1020.5 |
| 20260509212507 | 51 | 45 | 8.7 | 13.9 | 0.00 | 0.00 | 0.00 | 70 | 1020.6 |
| 20260509212007 | 51 | 49 | 8.7 | 17.4 | 0.00 | 0.00 | 0.00 | 69 | 1020.6 |